Location: Ciserano
(45.5833°N, 9.6000°E)
Time: 12:17:15
(UTC+00:00)

BREEZE M DEB (TANK) - Pass Details

Date: 29 November 2020
Orbit: 289 x 16164 km, 49.5° (Epoch: 25 January)

Event Time Altitude Azimuth Distance (km) Brightness Sun altitude
Rises 05:38:47 0° 241° (WSW) 6,230 7.3 -10.4°
Reaches altitude 10° 05:44:36 10° 241° (WSW) 3,603 6.1 -9.5°
Maximum altitude 05:51:26 77° 156° (SSE) 578 2.5 -8.4°
Drops below altitude 10° 05:53:58 10° 70° (ENE) 1,380 5.1 -8.0°
Sets 05:55:18 0° 68° (ENE) 2,056 6.0 -7.7°
